Location: Neunert
(37.7228°N, 89.5457°W)
Time: 04:52:37
(UTC+00:00)

Daily predictions for brighter satellites

Satellite Brightness Start Highest point End
(mag) Time Altitude Azimuth Time Altitude Azimuth Time Altitude Azimuth
Meteor 1-16 Rocket 4.4 00:48:51 10° S 00:54:20 52° E 00:59:41 10° NNE
COSMOS 2406 3.6 00:49:04 10° NNW 00:54:49 70° WSW 01:00:30 10° SSE
Cosmos 1331 Rocket 4.1 00:56:11 10° SSW 01:01:23 86° WNW 01:06:40 10° NNE
Cosmos 1953 2.7 00:58:37 10° SSE 01:02:10 38° E 01:05:43 10° NNE
Cosmos 1850 Rocket 4.1 00:57:08 10° N 01:02:22 59° ENE 01:07:31 10° SSE
CZ-4B R/B 2.6 00:58:37 10° SSE 01:02:23 68° ENE 01:06:02 10° N
Cosmos 2297 3.8 01:00:21 10° SSW 01:06:00 89° WNW 01:11:43 10° NNE
SL-08 R/B 4.4 01:02:43 10° N 01:07:15 51° WNW 01:11:52 10° SSW
Meteor PRIRODA 4.4 01:05:15 10° S 01:08:34 52° W 01:11:56 10° NNW
CZ-4B DEB 4.2 01:04:10 10° SSE 01:09:41 77° ENE 01:15:14 10° N
ADEOS Rocket 3.4 01:05:21 10° S 01:10:54 61° WSW 01:16:20 10° NNW
SJ 16-02 2.7 01:11:02 10° NNE 01:14:26 22° ENE 01:17:18 12° ESE
Cosmos 2369 Rocket 2.2 01:09:42 10° SSW 01:15:23 80° ESE 01:21:05 10° NNE
DELTA 2 DEB (DPAF) 4.4 01:11:34 10° NNE 01:15:34 40° E 01:19:32 10° S
ADEOS 4.2 01:10:47 10° S 01:15:54 60° WSW 01:21:05 10° NNW
NOSS 2-2 (C) 4.0 01:15:17 10° SW 01:18:38 46° NW 01:21:41 10° NNE
SL-8 Rocket 4.2 01:12:53 10° N 01:18:51 48° E 01:24:44 10° SSE
Iridium 82 4.5 01:15:23 10° N 01:18:55 85° E 01:22:34 10° S
SPOT 1/Viking Rocket 3.6 01:19:00 10° SSE 01:24:08 64° ENE 01:29:19 10° N
Cosmos 2263 4.1 01:18:42 10° S 01:24:17 68° ESE 01:29:52 10° NNE
Cosmos 2098 Rocket 4.3 01:20:18 10° SSE 01:24:59 28° E 01:29:02 10° NNE
CZ-4B R/B 3.3 01:23:57 10° SSE 01:29:32 63° ENE 01:35:05 10° N
Cosmos 2341 Rocket 4.0 01:23:51 10° N 01:30:07 65° E 01:36:17 10° SSE
Okean-O 4.2 01:28:33 15° E 01:30:20 19° ENE 01:33:23 10° NNE
Cosmos 1674 Rocket 4.3 01:26:05 10° NNW 01:30:27 58° W 01:34:49 10° S
PSLV R/B 4.4 01:28:18 16° SE 01:30:47 34° ENE 01:34:11 10° N
Cosmos 1825 1.9 01:27:26 10° N 01:30:51 61° E 01:34:14 10° SSE
USA 234 3.3 01:28:21 13° ESE 01:34:11 73° NE 01:40:42 10° NW
NOSS 3-1 (C) 2.9 01:32:22 10° SSW 01:36:54 53° ESE 01:42:08 10° NE
Cosmos 2082 Rocket 4.5 01:33:49 10° NW 01:38:17 24° W 01:42:43 10° SSW
Hubble Space Telescope 2.3 01:37:17 10° SW 01:40:20 21° S 01:41:39 18° SSE
Resurs 1-3 4.2 01:38:22 10° S 01:42:38 57° W 01:46:56 10° NNW
[s.n.70599] 4.5 01:43:18 10° W 01:45:11 19° SW 01:46:04 16° S
Cosmos 2366 rocket 4.0 01:43:21 10° N 01:49:43 75° E 01:56:03 10° SSE
Cosmos 1025 Rocket 3.0 01:47:00 10° N 01:51:23 87° E 01:55:30 11° S
Okean O Rocket 1.5 01:49:28 19° SSE 01:52:32 66° ENE 01:56:51 10° N
Nadezhda 3 Rocket 4.5 01:49:58 17° SE 01:53:56 36° E 01:59:27 10° NNE
Cosmos 2218 Rocket 4.0 01:50:37 10° N 01:57:03 82° E 02:03:24 10° S
Resurs 01 Rocket 1.5 01:55:01 18° SSE 01:58:12 79° ENE 02:02:37 10° N
ATLAS 3B R/B 3.0 01:51:45 10° S 01:58:15 47° ESE 02:05:13 10° NE
CARTOSAT-1 3.4 01:58:16 23° SSE 02:00:50 74° ENE 02:05:06 10° N
Cosmos 1346 Rocket 3.9 01:58:05 10° SSW 02:01:44 44° WNW 02:05:25 10° N
Cosmos 1975 Rocket 3.0 01:59:13 10° N 02:03:30 60° E 02:05:11 34° SSE
USA 281 3.3 01:59:34 23° SE 02:03:43 61° ENE 02:10:11 10° NNW
Cosmos 1821 Rocket 4.1 01:59:16 10° N 02:05:19 54° E 02:08:32 27° SE
USA 129 3.6 02:03:17 10° N 02:05:09 29° NW 02:05:09 29° NW
Cosmos 1959 Rocket 4.4 02:01:05 10° N 02:07:15 87° W 02:13:23 10° S
Cosmos 1328 4.4 02:05:05 10° NNW 02:08:46 51° W 02:11:46 14° SSW
OAO 3 Rocket 3.3 02:07:15 10° W 02:12:05 61° S 02:13:29 42° SE
USA 186 3.7 02:16:16 13° SSW 02:18:25 26° W 02:21:04 10° NW
DELTA 2 R/B (1) 4.2 02:13:09 10° W 02:18:28 45° SSW 02:20:22 33° SSE
CZ-4 R/B 3.9 02:20:31 10° SW 02:23:22 19° W 02:26:12 10° NW
ATLAS 5 CENTAUR R/B 1.2 02:21:03 10° SW 02:24:20 65° NW 02:27:48 10° NNE
SPOT 5 3.4 02:24:45 43° E 02:25:32 46° ENE 02:30:36 10° N
Cosmos 2151 Rocket 4.5 02:28:53 34° NE 02:28:53 34° NE 02:31:49 10° NNE
Meteor 1-11 4.1 02:28:42 10° N 02:34:23 90° SE 02:36:33 40° S
ERS-1 Rocket 3.8 02:36:16 34° ENE 02:36:16 34° ENE 02:40:22 10° N
Celestis-02/Orion 38 4.4 02:40:45 65° SE 02:41:26 78° ENE 02:46:30 10° NNW
MOS 1 4.2 02:45:26 50° S 02:47:01 85° WSW 02:52:45 10° NNW
Okean 2 Rocket 3.7 02:52:04 48° NNE 02:52:04 48° NNE 02:55:22 10° N
Cosmos 1934 Rocket 4.1 02:45:23 10° N 02:51:23 53° E 02:51:27 53° E
SJ 16-02 3.0 02:49:04 10° NW 02:52:45 28° W 02:54:06 23° SW
IRS-1C Rocket 3.9 02:56:50 80° S 02:57:08 89° W 03:02:27 10° NNW
Cosmos 2297 Rocket 3.8 02:56:01 10° N 02:59:36 21° NE 02:59:36 21° NE
NOSS 3-1 (A) 3.3 02:59:09 10° SW 03:03:53 64° NW 03:09:27 10° NNE
MetOp-B 4.1 03:05:02 71° SW 03:05:22 73° WSW 03:10:44 10° NNW
Spot 2 Rocket 4.2 03:07:31 43° NNE 03:07:31 43° NNE 03:11:13 10° N
Okean-O 3.8 03:06:02 35° WSW 03:06:25 36° W 03:10:30 10° NNW
Sich 1 Rocket 4.5 03:07:42 45° NNW 03:07:42 45° NNW 03:10:55 10° N
Terra 2.7 03:09:26 41° NNE 03:09:26 41° NNE 03:12:38 10° N
USA 245 4.4 03:22:34 70° NW 03:22:34 70° NW 03:27:13 10° NNW
Ariane Rocket 3.8 03:27:13 47° N 03:27:13 47° N 03:30:47 10° NNW
SPOT 3 Rocket 4.4 03:34:30 46° N 03:34:30 46° N 03:38:07 10° NNW
ATLAS 3B R/B 4.1 03:42:39 10° WSW 03:49:06 37° NW 03:56:00 10° NNE
Cosmos 1605 Rocket 4.5 03:50:26 10° N 03:55:31 58° NNW 03:55:31 58° NNW
Cosmos 2227 Rocket 3.9 04:10:13 10° N 04:12:58 27° N 04:12:58 27° N
CZ-4C R/B 3.7 04:30:29 10° NNW 04:36:24 46° NNE 04:36:24 46° NNE
Cosmos 2297 Rocket 4.1 04:39:06 10° NNW 04:41:24 25° NW 04:41:24 25° NW
COSMOS 2455 4.5 04:41:12 10° NNW 04:44:04 30° NNW 04:44:04 30° NNW
CENTAUR R/B 3.8 05:08:21 10° NNW 05:15:26 50° NNE 05:15:26 50° NNE
Cosmos 2263 Rocket 4.5 05:14:02 10° NNW 05:15:40 19° N 05:15:40 19° N
Cosmos 2333 Rocket 4.4 06:52:51 21° NNE 06:52:51 21° NNE 06:54:39 10° NNE
Cosmos 2360 Rocket 4.3 06:56:51 22° NNE 06:56:51 22° NNE 06:58:44 10° NNE
Cosmos 2322 Rocket 4.3 07:06:40 23° N 07:06:40 23° N 07:08:42 10° NNE
Cosmos 2219 Rocket 4.2 07:14:08 24° NE 07:14:08 24° NE 07:16:20 10° NNE
USA 215 4.4 07:10:14 10° NNE 07:15:22 36° NNW 07:15:22 36° NNW
SL-16 R/B 4.4 07:22:36 19° NNW 07:22:36 19° NNW 07:24:41 10° N
ADEOS II 4.0 07:34:02 10° NNE 07:36:45 25° ENE 07:36:45 25° ENE
CZ-2D R/B 3.5 07:46:29 10° NNE 07:49:31 35° NNE 07:49:31 35° NNE
SL-16 R/B 3.8 07:51:51 31° E 07:53:30 36° ENE 07:59:04 10° N
COSMOS 2428 3.5 08:10:38 49° NNE 08:10:38 49° NNE 08:14:43 10° NNE
CZ-2C R/B 3.6 08:17:17 42° N 08:17:17 42° N 08:20:49 10° N
Cosmos 2237 Rocket 3.3 08:16:42 37° E 08:16:42 37° E 08:21:35 10° NE
Lacrosse 5 3.9 08:21:30 20° NNW 08:21:30 20° NNW 08:24:42 10° NNE
Meteor 1-11 Rocket 4.5 08:17:51 10° N 08:23:13 47° ENE 08:23:44 45° E
CZ-2C R/B 3.8 08:19:44 10° NNE 08:23:30 50° NNE 08:23:30 50° NNE
ALOS 3.6 08:20:42 10° NNE 08:23:57 37° ENE 08:23:57 37° ENE
Resurs 1-4 Rocket 3.3 08:26:59 10° N 08:30:10 32° NNW 08:30:10 32° NNW
Cosmos 2333 Rocket 4.2 08:34:50 17° NW 08:34:50 17° NW 08:37:28 10° NNW
Cosmos 2360 Rocket 4.4 08:38:35 13° NW 08:38:35 13° NW 08:40:34 10° NNW
Nadezhda 4 Rocket 3.9 08:44:01 68° NW 08:44:01 68° NW 08:49:43 10° N
H-2A R/B 4.4 08:46:24 31° S 08:46:37 31° S 09:10:49 10° SE
NOSS 0 Rocket 3.7 08:48:14 79° W 08:48:22 79° WNW 08:54:32 10° NNE
Cosmos 1680 Rocket 4.4 08:47:51 39° SE 08:48:47 43° ESE 08:53:47 10° NNE
IDEFIX/ARIANE 42P 4.3 08:47:07 10° NNW 08:49:32 20° NW 08:49:32 20° NW
GP-B 4.0 08:46:53 10° N 08:49:53 43° N 08:49:53 43° N
Cosmos 2278 Rocket 2.9 08:46:55 10° NNW 08:52:29 53° ENE 08:58:00 10° SE
Meteor 2-17 Rocket 4.3 08:54:22 68° W 08:54:25 68° W 09:00:32 10° N
Cosmos 1428 Rocket 4.4 08:53:48 68° SSW 08:54:42 87° W 09:01:01 10° N
Cosmos 2219 Rocket 4.0 08:55:50 19° NW 08:55:50 19° NW 08:59:04 10° N
BREEZE-M DEB (TANK) 3.7 09:00:45 78° SSW 09:01:05 85° SE 09:12:19 10° NE
RESURS DK-1 3.9 09:04:22 28° NNW 09:04:22 28° NNW 09:06:43 10° N
Cosmos 1461 4.2 09:00:07 10° NNW 09:03:41 36° NE 09:07:12 10° ESE
Meteor 2-10 4.4 08:58:21 10° N 09:04:00 72° E 09:07:23 25° SSE
SL-16 R/B 3.9 09:03:20 14° SSE 09:07:05 28° ESE 09:11:49 10° NE
Cosmos 1151 Rocket 3.1 09:07:55 71° NNE 09:07:55 71° NNE 09:11:47 10° N
METEOR-M 4.4 09:04:39 10° NNE 09:09:58 66° ESE 09:11:50 40° S
CZ-2C R/B 3.3 09:06:57 10° NNE 09:11:58 49° E 09:14:38 26° SSE
USA 308 4.5 09:12:47 22° SE 09:12:47 22° SE 09:15:44 10° ENE
Cosmos 921 Rocket 4.0 09:16:42 30° SE 09:18:06 41° E 09:22:08 10° NNE
ADEOS II 3.3 09:13:52 10° N 09:17:38 26° NW 09:17:38 26° NW
Cosmos 1626 4.1 09:18:46 17° SE 09:20:11 23° E 09:22:50 10° NE
Meteor 1-19 Rocket 4.4 09:20:01 51° WSW 09:21:01 59° WNW 09:26:57 10° N
Cosmos 1975 4.0 09:19:41 10° N 09:23:19 39° E 09:26:57 10° SSE
Cosmos 923 Rocket 4.0 09:23:19 56° WSW 09:24:04 63° WNW 09:29:16 10° NNE
Cosmos 1092 Rocket 3.9 09:24:59 44° SW 09:26:47 62° W 09:32:52 10° N
CZ-2D R/B 4.1 09:28:27 10° NNW 09:30:50 14° WNW 09:30:50 14° WNW
Envisat 2.9 09:27:50 10° N 09:32:55 79° WNW 09:34:51 39° SSW
Cosmos 2026 Rocket 4.1 09:32:11 39° SW 09:34:15 54° W 09:40:28 10° N
NOSS 2-2 (E) 4.2 09:30:53 10° NW 09:35:56 85° WSW 09:43:10 10° SSE
BREEZE-M DEB (TANK) 3.1 09:34:05 36° W 09:36:08 58° NW 09:39:06 10° NE
SL-16 R/B 3.1 09:36:56 33° W 09:37:00 33° W 09:42:33 10° NW
EO 1 Delta rocket 4.2 09:36:43 10° N 09:41:05 43° WNW 09:41:49 40° WSW
Meteor 1-18 Rocket 4.2 09:39:20 17° S 09:43:40 83° E 09:49:23 10° N
Cosmos 1666 Rocket 3.6 09:40:23 10° N 09:44:51 80° E 09:49:16 10° S
CZ-4 R/B 4.3 09:44:25 10° N 09:48:51 41° WNW 09:49:59 35° WSW
NOSS 2-2 (D) 4.2 09:45:34 10° NNW 09:50:30 87° WSW 09:57:37 10° SSE
Thor Agena Rocket 3.4 09:45:39 10° N 09:50:40 74° WNW 09:53:50 23° SSW
Cosmos 1733 4.5 09:47:52 10° NNW 09:49:45 24° NW 09:49:45 24° NW
Cosmos 1943 Rocket 2.1 09:45:58 10° NNW 09:51:40 87° WSW 09:57:19 10° SSE
Meteor 2-4 Rocket 3.5 09:48:37 24° SSW 09:51:54 69° W 09:57:22 10° N
YAOGAN 6 2.3 09:49:20 10° N 09:52:34 61° WNW 09:53:02 53° WSW
H-2A R/B 3.5 09:49:54 10° NNE 09:54:31 36° E 09:59:13 10° SSE
BlueWalker 3 3.2 09:52:17 10° NW 09:55:55 40° NE 09:59:32 10° ESE
NOAA 11 4.3 09:53:29 10° N 09:58:48 56° WNW 10:02:18 21° SW
Cosmos 2237 Rocket 3.2 09:58:31 24° W 10:00:30 29° WNW 10:05:25 10° N
ALOS 4.0 09:59:10 10° NNW 10:01:59 16° WNW 10:02:16 16° WNW
Cosmos 2112 Rocket 4.4 10:01:07 26° SW 10:03:40 45° WNW 10:08:48 10° N
Cosmos 1340 Rocket 3.5 10:04:13 29° W 10:04:48 31° WNW 10:08:16 10° NNW
Cosmos 1867 4.4 10:00:56 10° NW 10:05:28 27° WSW 10:09:57 10° SSW
DMSP B5D2-2 4.0 10:03:54 10° S 10:09:05 79° WSW 10:14:18 10° NNW
Cosmos 2369 Rocket 4.5 10:06:03 10° N 10:10:48 27° ENE 10:15:29 10° ESE
Cosmos 1328 Rocket 3.9 10:08:30 22° SW 10:10:55 43° W 10:15:10 10° N
Cosmos 1805 3.7 10:08:48 10° NNW 10:12:10 33° W 10:13:52 22° SW
ATLAS 2AS CENTAUR R/B 2.9 10:07:19 18° SW 10:13:07 69° NW 10:20:20 10° NNE
CRYOSAT 2 4.4 10:08:24 10° N 10:13:18 88° E 10:18:10 10° S
Cosmos 1707 4.2 10:13:32 10° SSE 10:16:52 36° E 10:20:16 10° NNE
SWAS 4.4 10:14:28 10° NNW 10:18:35 57° WSW 10:22:42 10° S
Chandra Rocket (1) 3.4 10:18:55 15° SSW 10:20:59 25° SSE 10:26:45 10° ESE
IRS-1D 4.1 10:17:10 10° N 10:21:54 40° WNW 10:26:05 13° SW
Cosmos 1633 Rocket 3.3 10:18:40 10° NNW 10:22:47 44° W 10:26:54 10° SSW
S3M 4.1 10:17:59 10° N 10:24:11 84° E 10:30:25 10° S
Cosmos 1048 Rocket 4.1 10:21:42 10° SSW 10:27:02 89° ESE 10:32:22 10° NNE
Cosmos 2266 Rocket 3.9 10:23:35 10° SSW 10:29:40 72° W 10:35:43 10° N
Cosmos 1655 Rocket 4.2 10:23:56 10° S 10:30:08 80° E 10:36:22 10° N
SL-08 ROCKET BODY 4.3 10:29:21 10° SSW 10:35:12 76° W 10:41:11 10° N
Cosmos 2278 Rocket 3.4 10:32:11 10° WNW 10:36:03 19° W 10:39:54 10° SW
Cosmos 1461 4.2 10:39:24 10° WNW 10:41:37 15° WSW 10:43:50 10° SW
ARIANE 5 R/B 3.7 10:36:39 10° NNE 10:41:43 48° E 10:46:43 10° S
USA 308 3.2 10:41:22 12° WSW 10:44:38 42° NW 10:48:22 10° NE
Cosmos 1674 2.5 10:41:18 10° SSW 10:44:39 55° W 10:48:02 10° N
Cosmos 2056 Rocket 4.1 10:41:38 10° NW 10:46:34 37° W 10:51:29 10° SSW
ATLAS 5 CENTAUR R/B 3.7 10:43:13 10° WSW 10:47:12 13° SSW 10:49:45 10° S
Cosmos 494 Rocket 4.5 10:43:18 10° SW 10:48:11 41° WNW 10:53:03 10° N
CZ-2C R/B 4.0 10:46:05 10° NNW 10:49:40 19° WNW 10:53:15 10° WSW
Cosmos 2315 Rocket 4.0 10:44:41 10° N 10:50:55 90° W 10:57:06 10° S
SL-16 R/B 2.9 10:45:48 10° SW 10:50:59 37° WNW 10:56:13 10° N
ARGOS 4.0 10:45:56 10° NNE 10:51:13 56° E 10:56:26 10° S
Cosmos 1766 3.7 10:48:49 10° NNW 10:52:13 36° W 10:55:36 10° SSW
Cosmos 1939 Rocket 2.7 10:48:33 10° N 10:52:19 72° WNW 10:56:04 10° SSW
Cosmos 1452 Rocket 3.9 10:48:33 10° NNW 10:53:48 70° ENE 10:59:00 10° SSE
Cosmos 1626 3.8 10:52:12 10° WSW 10:53:56 14° WNW 10:55:41 10° NW
Cosmos 1340 4.2 10:52:30 10° WNW 10:54:18 14° W 10:56:05 10° WSW
Cosmos 1110 Rocket 4.5 10:51:11 10° NNW 10:56:27 70° ENE 11:01:42 10° SSE
KORONAS-FOTON 3.9 10:53:15 10° SSW 10:56:49 48° W 11:00:22 10° N
Cosmos 1656 Rocket 3.7 10:54:50 10° NNW 11:00:17 89° ENE 11:05:42 10° SSE
NOSS 3-1 (C) 4.3 10:54:07 10° NW 11:01:56 84° WSW 11:11:10 10° SSE
